CSN8735 ZGSZ-ZSQD

Flight info

Callsign CSN8735
Flight time N/A
Altitude 33100
Route IDUMA1 IDUMA W41 ISLOM G471 XEBUL DCT ODOPI DCT AKAVO DCT DST W117 BEGMO W13 PINOT B221 IDVEL IDV81A
Aircraft A20N/M-SDE2E3FGHIRWXY/LB1

Departure

Time 2026-04-29 15:29
Airport Shenzhen Bao'an International Airport (ZGSZ)

Arrival

Time N/A
Airport Qingdao Jiaodong International Airport (ZSQD)
Time Latitude Longitude Altitude Speed Heading
2026-04-29 15:21 22.63016 113.80883 18 ft 0 kts 173°
2026-04-29 15:22 22.63026 113.80881 20 ft 4 kts 175°
2026-04-29 15:22 22.63053 113.80881 18 ft 4 kts 186°
2026-04-29 15:22 22.63079 113.80887 18 ft 4 kts 208°
2026-04-29 15:22 22.63095 113.80904 18 ft 3 kts 263°
2026-04-29 15:23 22.63096 113.80911 18 ft 0 kts 265°
2026-04-29 15:26 22.63097 113.80886 19 ft 10 kts 280°
2026-04-29 15:26 22.63175 113.80846 18 ft 19 kts 34°
2026-04-29 15:26 22.63263 113.81013 18 ft 30 kts 63°
2026-04-29 15:27 22.63277 113.81120 18 ft 2 kts 88°
2026-04-29 15:27 22.62412 113.80158 18 ft 0 kts 333°
2026-04-29 15:28 22.62418 113.80154 18 ft 11 kts 333°
2026-04-29 15:28 22.62554 113.80078 18 ft 55 kts 333°
2026-04-29 15:28 22.63341 113.79647 19 ft 132 kts 333°
2026-04-29 15:28 22.64293 113.79118 47 ft 170 kts 333°
2026-04-29 15:29 22.65308 113.78518 599 ft 159 kts 342°
2026-04-29 15:29 22.67354 113.77913 1650 ft 160 kts 321°
2026-04-29 15:30 22.68833 113.75719 2121 ft 205 kts 311°
2026-04-29 15:30 22.69785 113.74499 2560 ft 219 kts 314°
2026-04-29 15:30 22.70871 113.73260 2977 ft 233 kts 316°
2026-04-29 15:30 22.72036 113.72007 3236 ft 237 kts 317°
2026-04-29 15:31 22.73227 113.70765 3292 ft 239 kts 317°
2026-04-29 15:31 22.74435 113.69522 3858 ft 240 kts 317°
2026-04-29 15:31 22.75652 113.68280 4701 ft 242 kts 317°
2026-04-29 15:31 22.77065 113.67289 5470 ft 246 kts 345°
2026-04-29 15:32 22.78771 113.67350 6195 ft 253 kts 21°
2026-04-29 15:32 22.80158 113.68521 6877 ft 261 kts 56°
2026-04-29 15:32 22.80778 113.70390 7495 ft 269 kts 79°
2026-04-29 15:32 22.81139 113.72397 8186 ft 274 kts 78°
2026-04-29 15:33 22.81627 113.74415 8826 ft 280 kts 73°
2026-04-29 15:33 22.82251 113.76436 9467 ft 286 kts 70°
2026-04-29 15:33 22.82967 113.78467 10096 ft 291 kts 68°
2026-04-29 15:33 22.83739 113.80510 10745 ft 295 kts 67°
2026-04-29 15:34 22.84555 113.82591 11249 ft 308 kts 66°
2026-04-29 15:34 22.85436 113.84791 11504 ft 329 kts 66°
2026-04-29 15:34 22.86381 113.87128 11760 ft 348 kts 66°
2026-04-29 15:34 22.87382 113.89596 12006 ft 366 kts 65°
2026-04-29 15:35 22.88604 113.92086 12223 ft 382 kts 54°
2026-04-29 15:35 22.90444 113.94209 12438 ft 393 kts 34°
2026-04-29 15:35 22.92872 113.95608 12641 ft 400 kts 15°
2026-04-29 15:35 22.95591 113.96415 12849 ft 410 kts
2026-04-29 15:36 22.98425 113.96984 13086 ft 418 kts
2026-04-29 15:36 23.01321 113.97437 13479 ft 422 kts
2026-04-29 15:36 23.03254 113.97717 13777 ft 424 kts
2026-04-29 15:36 23.07182 113.98297 14409 ft 428 kts
2026-04-29 15:37 23.10139 113.98760 14867 ft 430 kts
2026-04-29 15:37 23.12103 113.99082 15155 ft 433 kts
2026-04-29 15:37 23.15090 113.99587 15597 ft 435 kts
2026-04-29 15:37 23.19102 114.00283 16196 ft 438 kts
2026-04-29 15:38 23.21099 114.00633 16494 ft 440 kts
2026-04-29 15:38 23.24127 114.01185 16906 ft 443 kts
2026-04-29 15:38 23.27129 114.02029 17304 ft 449 kts 15°
2026-04-29 15:38 23.30021 114.03364 17620 ft 455 kts 25°
2026-04-29 15:39 23.32727 114.05196 17978 ft 460 kts 31°
2026-04-29 15:39 23.36167 114.07930 18439 ft 465 kts 34°
2026-04-29 15:39 23.37893 114.09397 18624 ft 467 kts 35°
2026-04-29 15:39 23.40436 114.11615 18925 ft 470 kts 36°
2026-04-29 15:40 23.43817 114.14589 19292 ft 474 kts 36°
2026-04-29 15:40 23.46397 114.16838 19597 ft 476 kts 36°
2026-04-29 15:40 23.48146 114.18358 19810 ft 477 kts 36°
2026-04-29 15:40 23.50749 114.20617 20066 ft 480 kts 36°
2026-04-29 15:41 23.53365 114.22890 20327 ft 482 kts 35°
2026-04-29 15:41 23.56007 114.25151 20626 ft 483 kts 35°
2026-04-29 15:41 23.58651 114.27406 20941 ft 484 kts 34°
2026-04-29 15:41 23.61318 114.29673 21132 ft 488 kts 34°
2026-04-29 15:42 23.63997 114.31955 21407 ft 489 kts 34°
2026-04-29 15:42 23.66701 114.34226 21654 ft 492 kts 34°
2026-04-29 15:42 23.69435 114.36477 21926 ft 494 kts 33°
2026-04-29 15:42 23.72188 114.38724 22218 ft 495 kts 33°
2026-04-29 15:43 23.74964 114.40956 22512 ft 495 kts 33°
2026-04-29 15:43 23.77745 114.43200 22680 ft 500 kts 33°
2026-04-29 15:43 23.80535 114.45485 22924 ft 502 kts 33°
2026-04-29 15:43 23.83328 114.47790 23218 ft 504 kts 33°
2026-04-29 15:44 23.86133 114.50109 23486 ft 506 kts 34°
2026-04-29 15:44 23.88942 114.52431 23773 ft 508 kts 33°
2026-04-29 15:44 23.91766 114.54767 23995 ft 511 kts 33°
2026-04-29 15:44 23.94610 114.57114 24247 ft 513 kts 33°
2026-04-29 15:45 23.97469 114.59470 24497 ft 516 kts 33°
2026-04-29 15:45 24.00341 114.61834 24779 ft 517 kts 33°
2026-04-29 15:45 24.03214 114.64203 25147 ft 517 kts 33°
2026-04-29 15:45 24.06081 114.66572 25527 ft 517 kts 33°
2026-04-29 15:46 24.08952 114.68944 25882 ft 517 kts 34°
2026-04-29 15:46 24.11820 114.71318 26259 ft 517 kts 34°
2026-04-29 15:46 24.14650 114.73660 26639 ft 517 kts 34°
2026-04-29 15:46 24.17520 114.76034 27035 ft 517 kts 33°
2026-04-29 15:47 24.20390 114.78409 27421 ft 517 kts 33°
2026-04-29 15:47 24.23259 114.80784 27818 ft 517 kts 33°
2026-04-29 15:47 24.26118 114.83176 28190 ft 518 kts 36°
2026-04-29 15:47 24.28732 114.85904 28573 ft 522 kts 46°
2026-04-29 15:48 24.31091 114.88933 28972 ft 522 kts 48°
2026-04-29 15:48 24.33365 114.92031 29361 ft 522 kts 50°
2026-04-29 15:48 24.35595 114.95183 29631 ft 524 kts 51°
2026-04-29 15:48 24.37807 114.98363 29991 ft 524 kts 51°
2026-04-29 15:49 24.40013 115.01549 30353 ft 524 kts 51°
2026-04-29 15:49 24.42215 115.04727 30745 ft 522 kts 51°
2026-04-29 15:49 24.44414 115.07895 31144 ft 521 kts 51°
2026-04-29 15:49 24.46608 115.11045 31530 ft 520 kts 51°
2026-04-29 15:50 24.48809 115.14201 31855 ft 520 kts 51°
2026-04-29 15:50 24.51006 115.17353 32188 ft 520 kts 51°
2026-04-29 15:50 24.53201 115.20501 32560 ft 518 kts 51°
2026-04-29 15:50 24.55390 115.23637 32940 ft 516 kts 52°
2026-04-29 15:51 24.57575 115.26766 33172 ft 517 kts 52°
2026-04-29 15:51 24.61949 115.33034 33186 ft 517 kts 52°
2026-04-29 15:52 24.66315 115.39305 33188 ft 516 kts 52°
2026-04-29 15:52 24.70576 115.45651 33196 ft 516 kts 54°
2026-04-29 15:53 24.74736 115.52089 33194 ft 517 kts 54°
2026-04-29 15:53 24.78897 115.58540 33187 ft 517 kts 54°
2026-04-29 15:54 24.83069 115.64985 33177 ft 517 kts 54°
2026-04-29 15:54 24.87252 115.71440 33184 ft 518 kts 54°
2026-04-29 15:55 24.91437 115.77904 33180 ft 519 kts 54°
2026-04-29 15:55 24.95626 115.84384 33182 ft 520 kts 54°
2026-04-29 15:56 24.99816 115.90879 33182 ft 520 kts 54°
2026-04-29 15:56 25.04013 115.97396 33163 ft 521 kts 54°
2026-04-29 15:57 25.08223 116.03922 33181 ft 522 kts 54°
2026-04-29 15:57 25.12420 116.10456 33179 ft 522 kts 54°
2026-04-29 15:58 25.16614 116.17003 33190 ft 523 kts 54°
2026-04-29 15:58 25.20788 116.23520 33177 ft 524 kts 54°
2026-04-29 15:59 25.24996 116.30092 33179 ft 524 kts 54°
2026-04-29 15:59 25.29198 116.36670 33180 ft 524 kts 54°
2026-04-29 16:00 25.33406 116.43262 33158 ft 525 kts 54°
2026-04-29 16:00 25.37608 116.49852 33166 ft 525 kts 54°
2026-04-29 16:01 25.41817 116.56462 33174 ft 526 kts 54°
2026-04-29 16:01 25.46023 116.63078 33163 ft 525 kts 54°
2026-04-29 16:02 25.50226 116.69710 33152 ft 524 kts 54°
2026-04-29 16:02 25.54417 116.76327 33151 ft 525 kts 54°
2026-04-29 16:03 25.58615 116.82946 33151 ft 525 kts 54°
2026-04-29 16:03 25.62804 116.89572 33155 ft 525 kts 54°
2026-04-29 16:04 25.66990 116.96202 33151 ft 525 kts 54°
2026-04-29 16:04 25.71172 117.02827 33163 ft 525 kts 54°
2026-04-29 16:05 25.75343 117.09462 33156 ft 524 kts 54°
2026-04-29 16:05 25.79509 117.16094 33157 ft 524 kts 54°
2026-04-29 16:06 25.83674 117.22731 33171 ft 524 kts 54°
2026-04-29 16:06 25.87831 117.29366 33167 ft 523 kts 54°
2026-04-29 16:07 25.91985 117.35996 33159 ft 523 kts 54°
2026-04-29 16:07 25.96129 117.42631 33163 ft 523 kts 54°
2026-04-29 16:08 26.00272 117.49274 33151 ft 523 kts 54°
2026-04-29 16:08 26.04419 117.55927 33159 ft 525 kts 54°
2026-04-29 16:09 26.08583 117.62620 33160 ft 527 kts 54°
2026-04-29 16:09 26.12713 117.69269 33162 ft 525 kts 55°
2026-04-29 16:10 26.16865 117.75957 33158 ft 525 kts 54°
2026-04-29 16:10 26.20999 117.82647 33158 ft 524 kts 55°
2026-04-29 16:11 26.25134 117.89329 33176 ft 524 kts 55°
2026-04-29 16:11 26.29266 117.96023 33183 ft 524 kts 55°
2026-04-29 16:12 26.33402 118.02729 33211 ft 525 kts 54°
2026-04-29 16:12 26.37537 118.09432 33208 ft 524 kts 55°
2026-04-29 16:13 26.41660 118.16132 33189 ft 524 kts 55°
2026-04-29 16:13 26.45781 118.22836 33183 ft 524 kts 55°
2026-04-29 16:14 26.49895 118.29538 33186 ft 524 kts 55°
2026-04-29 16:14 26.54012 118.36270 33193 ft 526 kts 55°
2026-04-29 16:15 26.58138 118.43024 33180 ft 526 kts 56°
2026-04-29 16:15 26.62260 118.49783 33201 ft 527 kts 56°
2026-04-29 16:16 26.66386 118.56560 33200 ft 528 kts 56°
2026-04-29 16:16 26.70520 118.63352 33205 ft 528 kts 56°
2026-04-29 16:17 26.74650 118.70146 33205 ft 529 kts 56°
2026-04-29 16:17 26.78759 118.76914 33198 ft 529 kts 56°
2026-04-29 16:18 26.82893 118.83735 33199 ft 530 kts 56°
2026-04-29 16:18 26.87024 118.90563 33200 ft 529 kts 56°